GW2708 Weather Reports


time (UTC)temp
F
wind
direction
speed
knots
gust
knots
rain 1hr
in
rain 24hr
in
rain mn
in
humidity
%
barometer
mb
20260510203518 50 248 7.0 16.5 0.00 0.01 0.00 41 1014.2
20260510203037 50 333 5.2 13.9 0.00 0.01 0.00 41 1014.1
20260510202518 51 359 5.2 13.9 0.00 0.01 0.00 42 1014.2
20260510202021 51 269 6.1 13.9 0.00 0.01 0.00 42 1014.1
20260510201539 51 248 6.1 16.5 0.00 0.01 0.00 41 1013.9
20260510201018 51 275 7.0 16.5 0.00 0.01 0.00 40 1013.8
20260510200518 51 278 4.3 14.8 0.00 0.01 0.00 41 1013.9
20260510200036 51 277 7.0 12.2 0.00 0.01 0.00 38 1013.9
20260510195520 51 167 5.2 15.6 0.00 0.07 0.00 38 1013.8
20260510195020 51 311 5.2 15.6 0.00 0.07 0.00 38 1013.7
20260510194537 51 316 8.7 15.6 0.00 0.07 0.00 36 1013.8
20260510194019 51 347 5.2 16.5 0.00 0.07 0.00 39 1013.7
20260510193522 50 242 8.7 16.5 0.00 0.07 0.00 36 1013.7
20260510193037 51 281 4.3 14.8 0.00 0.07 0.00 37 1013.7
20260510192521 51 242 7.0 13.0 0.00 0.07 0.00 37 1013.7
20260510192018 51 281 4.3 13.0 0.00 0.07 0.00 38 1013.7
20260510191539 50 296 7.0 13.9 0.00 0.07 0.00 38 1013.6
20260510191018 51 330 7.0 17.4 0.00 0.07 0.00 35 1013.7
20260510190518 50 274 7.0 17.4 0.00 0.07 0.00 36 1013.6
20260510190047 51 283 6.1 20.0 0.00 0.07 0.00 34 1013.7
20260510185521 50 305 8.7 20.0 0.00 0.07 0.00 35 1013.5
20260510185021 50 321 7.8 15.6 0.00 0.07 0.00 35 1013.5
20260510184547 50 300 5.2 14.8 0.00 0.07 0.00 35 1013.4
20260510184024 50 273 7.8 14.8 0.00 0.07 0.00 37 1013.4
20260510183521 50 308 5.2 13.9 0.00 0.07 0.00 40 1013.3
20260510183035 50 24 4.3 13.9 0.00 0.07 0.00 40 1013.3
20260510182519 50 299 7.0 18.2 0.00 0.07 0.00 40 1013.2
20260510182022 49 348 6.1 18.2 0.00 0.07 0.00 42 1013.2
20260510181551 49 335 7.8 13.9 0.00 0.07 0.00 42 1013.1
20260510181019 49 278 7.0 13.0 0.00 0.07 0.00 39 1013.1
20260510180519 49 307 6.1 14.8 0.00 0.07 0.00 41 1013.2
20260510180046 50 302 5.2 14.8 0.00 0.07 0.00 42 1013.2
20260510175518 50 291 6.1 14.8 0.00 0.07 0.00 42 1013.1
20260510175018 49 323 6.1 13.0 0.00 0.07 0.00 46 1013.0
20260510174536 50 241 6.1 13.0 0.00 0.07 0.00 44 1013.1
20260510174022 49 303 5.2 11.3 0.00 0.07 0.00 45 1013.0
20260510173517 49 305 6.1 11.3 0.00 0.07 0.00 43 1013.1
20260510173037 49 256 5.2 12.2 0.00 0.07 0.00 43 1013.0
20260510172518 49 282 5.2 13.9 0.00 0.07 0.00 44 1013.0
20260510172023 48 230 4.3 13.9 0.00 0.07 0.00 50 1013.1
20260510171550 48 266 5.2 12.2 0.00 0.07 0.00 48 1013.0
20260510171018 48 278 5.2 13.0 0.00 0.07 0.00 47 1013.0
20260510170517 48 306 6.1 13.0 0.00 0.07 0.00 46 1012.9
20260510170041 48 294 5.2 12.2 0.00 0.07 0.00 47 1013.0
20260510165518 48 284 5.2 13.9 0.00 0.07 0.00 46 1013.0
20260510165021 47 221 5.2 13.9 0.00 0.07 0.00 47 1013.0
20260510164538 47 280 5.2 14.8 0.00 0.07 0.00 50 1012.9
20260510164021 47 269 5.2 14.8 0.00 0.07 0.00 49 1013.0
20260510163518 47 297 4.3 10.4 0.00 0.07 0.00 53 1012.9
20260510163035 47 321 4.3 9.6 0.00 0.07 0.00 56 1012.9
20260510162524 47 335 5.2 11.3 0.00 0.07 0.00 53 1012.9
20260510162021 48 308 4.3 11.3 0.00 0.07 0.00 52 1012.9
20260510161536 48 50 4.3 13.0 0.00 0.07 0.00 55 1012.7
20260510161021 47 345 5.2 13.0 0.00 0.07 0.00 55 1012.7
20260510160518 47 306 4.3 10.4 0.00 0.07 0.00 54 1012.6
20260510160043 47 341 4.3 13.9 0.00 0.07 0.00 58 1012.6
20260510155523 47 241 5.2 13.9 0.00 0.07 0.00 54 1012.7
20260510155020 47 278 4.3 9.6 0.00 0.07 0.00 59 1012.6
20260510154553 46 289 4.3 11.3 0.00 0.07 0.00 57 1012.5
20260510154020 46 278 5.2 13.0 0.00 0.07 0.00 62 1012.4
20260510153520 46 261 5.2 13.0 0.00 0.07 0.00 63 1012.4
20260510153047 46 319 4.3 13.0 0.00 0.07 0.00 63 1012.4
20260510152518 45 284 6.1 13.0 0.00 0.07 0.00 63 1012.3
20260510152020 45 311 4.3 9.6 0.00 0.07 0.00 64 1012.3
20260510151535 45 313 3.5 9.6 0.00 0.07 0.00 67 1012.3
20260510151021 45 305 5.2 9.6 0.00 0.07 0.00 65 1012.3
20260510150530 45 261 2.6 9.6 0.00 0.07 0.00 67 1012.1
20260510150036 45 302 4.3 9.6 0.00 0.07 0.00 65 1012.1
20260510145520 45 9 3.5 7.8 0.00 0.07 0.00 66 1012.1
20260510145020 45 243 3.5 7.8 0.00 0.07 0.00 66 1012.0
20260510144548 44 34 3.5 7.0 0.00 0.07 0.00 70 1012.0
20260510144022 44 248 2.6 10.4 0.00 0.07 0.00 71 1011.9
20260510143523 44 207 3.5 11.3 0.00 0.07 0.00 71 1011.9
20260510143039 44 240 4.3 11.3 0.00 0.07 0.00 72 1011.9
20260510142527 44 43 4.3 10.4 0.00 0.07 0.00 72 1011.9
20260510142020 44 293 3.5 10.4 0.00 0.07 0.00 73 1011.9
20260510141541 43 300 4.3 10.4 0.00 0.07 0.00 71 1011.9
20260510141022 43 359 3.5 9.6 0.00 0.07 0.00 71 1011.9
20260510140521 43 255 3.5 10.4 0.00 0.07 0.00 73 1011.8
20260510140035 43 283 3.5 10.4 0.00 0.07 0.00 71 1011.8
20260510135521 43 264 3.5 11.3 0.00 0.07 0.00 73 1011.7
20260510135021 42 308 4.3 11.3 0.00 0.07 0.00 73 1011.7
20260510134535 42 311 3.5 8.7 0.00 0.07 0.00 71 1011.6
20260510134024 43 257 4.3 8.7 0.00 0.07 0.00 73 1011.5
20260510133520 43 342 4.3 13.0 0.00 0.07 0.00 72 1011.5
20260510133034 42 307 6.1 13.0 0.00 0.07 0.00 71 1011.4
20260510132520 42 4 3.5 11.3 0.00 0.07 0.00 73 1011.3
20260510132021 42 300 6.1 11.3 0.00 0.07 0.00 72 1011.3
20260510131536 42 289 4.3 11.3 0.00 0.07 0.00 72 1011.3
20260510131020 42 321 3.5 11.3 0.00 0.07 0.00 73 1011.3
20260510130520 42 284 4.3 8.7 0.00 0.07 0.00 73 1011.2
20260510130039 42 318 4.3 9.6 0.00 0.07 0.00 73 1011.2
20260510125520 42 314 4.3 9.6 0.00 0.07 0.00 73 1011.3
20260510125023 42 263 3.5 9.6 0.00 0.07 0.00 73 1011.2
20260510124539 42 323 4.3 7.0 0.00 0.07 0.00 72 1011.1
20260510124022 41 272 1.7 7.8 0.00 0.07 0.00 73 1011.0
20260510123522 41 250 2.6 7.8 0.00 0.07 0.00 74 1011.0
20260510123036 41 293 3.5 7.8 0.00 0.07 0.00 74 1010.7
20260510122518 41 278 3.5 7.8 0.00 0.07 0.00 74 1010.7
20260510122018 40 357 2.6 7.8 0.00 0.07 0.00 76 1010.7
20260510121534 40 262 3.5 7.8 0.00 0.07 0.00 75 1010.6
20260510121020 40 318 2.6 7.8 0.00 0.07 0.00 76 1010.6
20260510120521 40 267 3.5 7.8 0.00 0.07 0.00 76 1010.5
20260510120034 40 300 2.6 7.0 0.00 0.07 0.00 77 1010.5
20260510115520 39 321 1.7 6.1 0.00 0.07 0.00 79 1010.6
20260510115022 39 288 2.6 7.0 0.00 0.07 0.00 78 1010.4
20260510114537 39 233 1.7 7.0 0.00 0.07 0.00 79 1010.4
20260510114019 38 301 3.5 7.0 0.00 0.07 0.00 79 1010.4
20260510113520 38 290 3.5 7.0 0.00 0.07 0.00 80 1010.2
20260510113036 38 298 3.5 7.0 0.00 0.07 0.00 80 1010.2
20260510112522 38 302 2.6 7.0 0.00 0.07 0.00 81 1010.1
20260510112022 37 297 2.6 7.8 0.00 0.07 0.00 81 1010.0
20260510111543 37 304 2.6 7.8 0.00 0.07 0.00 81 1009.9
20260510111021 37 61 2.6 7.8 0.00 0.07 0.00 82 1009.8
20260510110520 36 307 3.5 7.8 0.00 0.07 0.00 83 1009.7
20260510110037 36 298 2.6 6.1 0.00 0.07 0.00 84 1009.7
20260510105519 36 326 2.6 6.1 0.00 0.07 0.00 84 1009.6
20260510105022 36 313 1.7 4.3 0.00 0.07 0.00 84 1009.5
20260510104550 35 282 1.7 4.3 0.00 0.07 0.00 85 1009.4
20260510104020 35 274 1.7 4.3 0.00 0.07 0.00 85 1009.3
20260510103520 35 295 1.7 4.3 0.00 0.07 0.00 85 1009.2
20260510103039 35 256 2.6 5.2 0.00 0.07 0.00 85 1009.1
20260510102521 35 290 1.7 5.2 0.00 0.07 0.00 86 1009.0
20260510102021 35 293 2.6 5.2 0.00 0.07 0.00 86 1008.9
20260510101539 35 319 1.7 5.2 0.00 0.07 0.00 86 1008.8
20260510101023 35 274 1.7 5.2 0.00 0.07 0.00 86 1008.8
20260510100520 35 297 1.7 4.3 0.00 0.07 0.00 86 1008.6
20260510100040 35 331 1.7 5.2 0.00 0.07 0.00 86 1008.7
20260510095524 35 207 2.6 5.2 0.00 0.07 0.00 86 1008.6
20260510095021 36 228 2.6 6.1 0.00 0.07 0.00 86 1008.4
20260510094536 36 311 2.6 7.0 0.00 0.07 0.00 86 1008.3
20260510094020 36 304 3.5 7.0 0.00 0.07 0.00 86 1008.3
20260510093520 36 354 3.5 7.0 0.00 0.07 0.00 85 1008.3
20260510093036 36 11 3.5 8.7 0.00 0.07 0.00 85 1008.2
20260510092523 36 266 3.5 8.7 0.00 0.07 0.00 85 1008.0
20260510092020 36 308 3.5 10.4 0.00 0.07 0.00 85 1007.9
20260510091539 36 259 4.3 10.4 0.00 0.07 0.00 85 1007.9
20260510091022 36 305 4.3 8.7 0.00 0.07 0.00 85 1007.8
20260510090521 36 290 4.3 9.6 0.00 0.07 0.00 85 1007.7
20260510090037 36 273 4.3 9.6 0.00 0.07 0.00 85 1007.7
20260510085517 36 264 4.3 9.6 0.00 0.07 0.00 85 1007.6
20260510085019 36 8 3.5 9.6 0.00 0.07 0.00 85 1007.5
20260510084547 36 266 4.3 7.8 0.00 0.07 0.00 84 1007.4
20260510084020 36 214 3.5 7.8 0.00 0.07 0.00 84 1007.4
20260510083522 37 254 3.5 9.6 0.00 0.07 0.00 84 1007.3
20260510083042 37 296 4.3 9.6 0.00 0.07 0.00 84 1007.3
20260510082520 37 359 4.3 7.8 0.00 0.07 0.00 84 1007.3
20260510082020 37 299 3.5 7.8 0.00 0.07 0.00 83 1007.2
20260510081547 37 280 2.6 8.7 0.00 0.07 0.00 83 1007.2
20260510081020 37 245 4.3 8.7 0.00 0.07 0.00 84 1007.0
20260510080520 37 250 3.5 8.7 0.00 0.07 0.00 84 1006.9
20260510080037 37 335 4.3 8.7 0.00 0.07 0.00 84 1007.0
20260510075520 37 291 2.6 8.7 0.00 0.07 0.00 84 1006.8
20260510075020 37 342 3.5 8.7 0.00 0.07 0.00 84 1006.9
20260510074542 37 272 4.3 9.6 0.00 0.07 0.00 84 1006.8
20260510074020 37 200 4.3 9.6 0.00 0.07 0.00 83 1006.7
20260510073519 37 307 5.2 11.3 0.00 0.07 0.00 84 1006.5
20260510073046 37 290 4.3 11.3 0.00 0.07 0.00 83 1006.6
20260510072522 37 266 5.2 10.4 0.00 0.07 0.00 83 1006.5
20260510072021 37 6 5.2 11.3 0.00 0.07 0.00 83 1006.3
20260510071536 37 30 5.2 11.3 0.00 0.07 0.00 83 1006.2
20260510071020 37 342 6.1 13.0 0.00 0.07 0.00 83 1006.2
20260510070520 37 246 6.1 13.0 0.00 0.07 0.00 83 1006.0
20260510070038 37 290 6.1 13.0 0.00 0.07 0.00 83 1006.0
20260510065520 37 309 4.3 11.3 0.00 0.07 0.00 83 1005.9
20260510065023 37 261 5.2 11.3 0.00 0.07 0.00 83 1005.8
20260510064536 37 295 5.2 11.3 0.00 0.07 0.00 82 1005.7
20260510064020 37 316 4.3 10.4 0.00 0.07 0.00 82 1005.7
20260510063520 37 297 6.1 10.4 0.00 0.07 0.00 82 1005.7
20260510063037 37 325 6.1 10.4 0.00 0.07 0.00 82 1005.7
20260510062518 37 305 4.3 10.4 0.00 0.07 0.00 82 1005.7
20260510062017 37 347 5.2 10.4 0.00 0.07 0.00 82 1005.7
20260510061535 37 156 4.3 9.6 0.00 0.07 0.00 82 1005.6
20260510061021 37 293 4.3 10.4 0.00 0.07 0.00 82 1005.7
20260510060521 37 294 4.3 10.4 0.00 0.07 0.00 81 1005.5
20260510060042 38 314 3.5 12.2 0.00 0.07 0.00 81 1005.5
20260510055521 38 318 5.2 12.2 0.00 0.07 0.00 81 1005.5
20260510055020 38 271 3.5 8.7 0.00 0.07 0.00 81 1005.5
20260510054535 38 248 4.3 10.4 0.00 0.07 0.00 81 1005.5
20260510054021 38 354 3.5 10.4 0.00 0.07 0.00 81 1005.5
20260510053520 38 280 3.5 11.3 0.00 0.07 0.00 81 1005.4
20260510053041 38 294 3.5 11.3 0.00 0.07 0.00 81 1005.4
20260510052520 38 338 2.6 8.7 0.00 0.07 0.00 80 1005.3
20260510052024 38 271 3.5 8.7 0.00 0.07 0.00 80 1005.3
20260510051541 38 305 2.6 8.7 0.00 0.07 0.00 80 1005.3
20260510051019 38 272 3.5 8.7 0.00 0.07 0.00 80 1005.3
20260510050519 38 297 2.6 8.7 0.00 0.07 0.00 79 1005.2
20260510050038 38 295 3.5 8.7 0.00 0.07 0.00 79 1005.2
20260510045518 39 297 2.6 8.7 0.00 0.07 0.00 79 1005.1
20260510045021 39 331 3.5 9.6 0.00 0.07 0.00 79 1005.0
20260510044536 39 328 3.5 12.2 0.00 0.07 0.00 79 1004.9
20260510044020 39 193 3.5 12.2 0.00 0.07 0.00 79 1004.8
20260510043520 39 319 4.3 12.2 0.00 0.07 0.00 78 1004.8
20260510043035 39 264 5.2 12.2 0.00 0.07 0.00 78 1004.6
20260510042520 39 280 4.3 12.2 0.00 0.07 0.00 78 1004.5
20260510042020 40 298 5.2 12.2 0.00 0.07 0.00 77 1004.4
20260510041538 40 236 5.2 11.3 0.00 0.07 0.00 77 1004.3
20260510041022 40 325 6.1 15.6 0.00 0.07 0.00 77 1004.2
20260510040519 40 266 5.2 15.6 0.00 0.07 0.00 76 1004.0
20260510040036 40 287 6.1 14.8 0.00 0.07 0.00 76 1004.0
20260510035521 40 312 6.1 14.8 0.00 0.07 0.07 76 1003.9
20260510035023 40 359 7.0 13.9 0.00 0.07 0.07 76 1003.9
20260510034535 40 307 7.0 13.9 0.00 0.07 0.07 76 1003.8
20260510034020 40 311 7.0 15.6 0.00 0.07 0.07 76 1003.8
20260510033521 40 358 6.1 15.6 0.00 0.07 0.07 75 1003.9
20260510033034 41 297 7.0 15.6 0.00 0.07 0.07 75 1003.8
20260510032520 41 13 5.2 14.8 0.00 0.07 0.07 75 1003.8
20260510032019 41 356 7.0 14.8 0.00 0.07 0.07 75 1003.6
20260510031542 41 290 5.2 12.2 0.00 0.07 0.07 75 1003.6
20260510031020 41 273 5.2 11.3 0.00 0.07 0.07 75 1003.5
20260510030519 41 245 6.1 13.9 0.00 0.07 0.07 75 1003.4
20260510030035 41 344 6.1 13.9 0.00 0.07 0.07 75 1003.4
20260510025519 41 335 6.1 11.3 0.00 0.07 0.07 75 1003.1
20260510025019 41 350 6.1 14.8 0.00 0.07 0.07 74 1003.0
20260510024536 41 290 6.1 14.8 0.00 0.07 0.07 74 1003.1
20260510024019 41 344 5.2 12.2 0.00 0.07 0.07 74 1002.9
20260510023519 41 24 5.2 11.3 0.00 0.07 0.07 74 1002.7
20260510023040 41 278 5.2 14.8 0.00 0.07 0.07 74 1002.8
20260510022519 41 300 6.1 14.8 0.00 0.07 0.07 74 1002.7
20260510022022 41 331 6.1 17.4 0.00 0.07 0.07 73 1002.7
20260510021537 41 32 7.0 17.4 0.00 0.07 0.07 73 1002.6
20260510021018 42 299 3.5 12.2 0.00 0.07 0.07 73 1002.5
20260510020521 42 358 4.3 12.2 0.00 0.07 0.07 73 1002.4
20260510020035 42 259 4.3 12.2 0.00 0.07 0.07 72 1002.4
20260510015521 42 18 5.2 12.2 0.00 0.07 0.07 72 1002.3
20260510015020 42 345 6.1 12.2 0.00 0.07 0.07 72 1002.2
20260510014533 42 205 4.3 11.3 0.00 0.07 0.07 72 1002.1
20260510014019 42 354 5.2 12.2 0.00 0.07 0.07 72 1002.0
20260510013521 42 309 5.2 12.2 0.00 0.07 0.07 72 1001.9
20260510013038 42 287 5.2 11.3 0.00 0.07 0.07 72 1001.7
20260510012518 42 283 4.3 11.3 0.00 0.07 0.07 72 1001.6
20260510012019 43 316 4.3 13.9 0.00 0.07 0.07 71 1001.4
20260510011535 43 248 6.1 13.9 0.00 0.07 0.07 71 1001.3
20260510011018 43 290 6.1 17.4 0.00 0.07 0.07 71 1001.1
20260510010518 43 307 6.1 17.4 0.00 0.07 0.07 70 1000.9
20260510010034 43 293 6.1 17.4 0.00 0.07 0.07 70 1000.9
20260510005521 43 8 6.1 15.6 0.00 0.07 0.07 69 1000.6
20260510005020 44 338 7.0 15.6 0.00 0.07 0.07 69 1000.6
20260510004535 44 236 6.1 13.9 0.00 0.07 0.07 68 1000.5
20260510004021 44 307 5.2 14.8 0.00 0.07 0.07 68 1000.4
20260510003519 44 333 7.0 15.6 0.00 0.07 0.07 67 1000.2
20260510003040 45 319 7.8 15.6 0.00 0.07 0.07 67 1000.1
20260510002518 45 326 7.8 17.4 0.00 0.07 0.07 67 1000.1
20260510002019 45 268 7.8 17.4 0.00 0.07 0.07 66 999.8
20260510001535 46 300 7.0 17.4 0.00 0.07 0.07 65 999.7
20260510001020 46 328 7.0 14.8 0.00 0.07 0.07 65 999.7
20260510000520 47 299 6.1 13.9 0.00 0.07 0.07 65 999.6
20260510000037 47 238 7.0 14.8 0.00 0.07 0.07 63 999.4
20260509235518 47 279 6.1 17.4 0.00 0.07 0.07 62 999.5
20260509235019 48 298 7.0 18.2 0.00 0.07 0.07 61 999.4
20260509234539 49 314 7.0 18.2 0.00 0.07 0.07 58 999.2
20260509234020 49 259 7.8 18.2 0.00 0.07 0.07 56 999.1
20260509233518 49 208 6.1 19.1 0.00 0.07 0.07 56 999.0
20260509233033 49 310 7.0 19.1 0.00 0.07 0.07 56 999.0
20260509232518 49 297 7.8 19.1 0.00 0.07 0.07 54 999.1
20260509232018 49 201 7.8 16.5 0.00 0.07 0.07 54 999.0
20260509231533 49 292 7.0 17.4 0.00 0.07 0.07 54 999.0
20260509231016 49 9 7.8 17.4 0.00 0.07 0.07 53 998.8
20260509230519 50 273 8.7 14.8 0.00 0.07 0.07 53 998.7
20260509230037 50 288 7.8 20.9 0.00 0.07 0.07 52 998.7
20260509225516 50 269 8.7 20.9 0.00 0.07 0.07 52 998.6
20260509225018 50 323 7.8 18.2 0.00 0.07 0.07 51 998.5
20260509224537 51 273 7.0 15.6 0.00 0.07 0.07 51 998.4
20260509224018 52 310 6.1 15.6 0.00 0.07 0.07 51 998.0
20260509223522 52 352 8.7 15.6 0.00 0.07 0.07 51 998.2
20260509223035 50 274 6.1 13.9 0.00 0.07 0.07 54 998.1
20260509222518 50 252 6.1 12.2 0.00 0.07 0.07 56 997.8
20260509222018 50 297 5.2 11.3 0.00 0.07 0.07 60 997.7
20260509221533 49 343 5.2 12.2 0.00 0.07 0.07 62 997.6
20260509221016 49 338 4.3 12.2 0.00 0.07 0.07 65 997.5
20260509220516 49 323 5.2 12.2 0.00 0.07 0.07 64 997.4
20260509220037 48 352 4.3 10.4 0.00 0.07 0.07 65 997.4
20260509215521 48 283 5.2 13.9 0.00 0.07 0.07 67 997.3
20260509215018 48 335 5.2 13.9 0.00 0.07 0.07 70 997.1
20260509214536 48 301 5.2 13.0 0.00 0.07 0.07 71 997.1
20260509214024 49 292 5.2 13.0 0.00 0.07 0.07 72 997.1
20260509213518 49 290 5.2 13.0 0.00 0.07 0.07 73 997.0
20260509213039 49 302 6.1 12.2 0.00 0.07 0.07 75 997.0
20260509212519 49 316 7.0 12.2 0.00 0.07 0.07 76 997.0
20260509212023 50 280 5.2 12.2 0.00 0.07 0.07 79 996.9
20260509211530 51 259 4.3 11.3 0.00 0.07 0.07 80 996.9
20260509211021 51 228 4.3 10.4 0.00 0.07 0.07 81 996.8
20260509210516 51 241 3.5 10.4 0.01 0.07 0.07 83 996.6
20260509210040 50 14 2.6 6.1 0.01 0.07 0.07 84 996.3
20260509205516 49 248 2.6 8.7 0.01 0.07 0.07 85 996.4
20260509205017 49 288 2.6 8.7 0.01 0.07 0.07 85 996.3
20260509204535 49 276 2.6 8.7 0.02 0.07 0.07 85 996.2
20260509204019 48 273 3.5 8.7 0.03 0.07 0.07 86 996.2